START_TIME,STEP,MOV.,M35,t_acc.,PL05,t_acc.,PL06,t_acc.,PL07,t_acc.
1979-07-27 06:00:23.180 ,0,1,0.,4.8,3.,4.8,0.,4.8,0.,4.8
1979-07-27 06:00:27.980 ,0,1,0.,4.8,5.,4.8,4.,4.8,0.,4.8
1979-07-27 06:00:32.780 ,0,1,0.,4.8,6.,4.8,0.,4.8,0.,4.8
1979-07-27 06:00:37.580 ,0,1,0.,4.8,9.,4.8,1.,4.8,0.,4.8
1979-07-27 06:00:42.380 ,0,1,0.,4.8,4.,4.8,0.,4.8,0.,4.8
1979-07-27 06:00:47.180 ,4,1,0.,4.8,2.,4.8,0.,4.8,0.,4.8
1979-07-27 06:00:51.980 ,4,1,0.,4.8,5.,4.8,0.,4.8,0.,4.8
1979-07-27 06:00:56.780 ,4,1,0.,4.8,1.,4.8,0.,4.8,0.,4.8
1979-07-27 06:01:01.580 ,4,1,0.,4.8,4.,4.8,0.,4.8,0.,4.8
1979-07-27 06:01:06.380 ,4,1,0.,4.8,3.,4.8,0.,4.8,0.,4.8
1979-07-27 06:01:11.180 ,7,1,0.,4.8,0.,4.8,0.,4.8,0.,4.8
1979-07-27 06:01:15.980 ,7,1,0.,4.8,4.,4.8,0.,4.8,1.,4.8
1979-07-27 06:01:20.780 ,7,1,0.,4.8,3.,4.8,0.,4.8,0.,4.8
1979-07-27 06:01:25.580 ,7,1,0.,4.8,0.,4.8,0.,4.8,0.,4.8
1979-07-27 06:01:30.380 ,7,1,0.,4.8,1.,4.8,0.,4.8,0.,4.8
1979-07-27 06:01:35.180 ,3,1,0.,4.8,1.,4.8,0.,4.8,0.,4.8
1979-07-27 06:01:39.980 ,3,1,0.,4.8,1.,4.8,1.,4.8,2.,4.8
1979-07-27 06:01:44.780 ,3,1,0.,4.8,1.,4.8,1.,4.8,0.,4.8
1979-07-27 06:01:49.580 ,3,1,0.,4.8,3.,4.8,0.,4.8,0.,4.8
1979-07-27 06:01:54.380 ,3,1,0.,4.8,0.,4.8,0.,4.8,1.,4.8
1979-07-27 06:01:59.180 ,0,1,0.,4.8,3.,4.8,0.,4.8,0.,4.8
1979-07-27 06:02:03.980 ,0,1,0.,4.8,2.,4.8,0.,4.8,0.,4.8
1979-07-27 06:02:08.780 ,0,1,0.,4.8,4.,4.8,1.,4.8,1.,4.8
1979-07-27 06:02:13.580 ,0,1,0.,4.8,5.,4.8,0.,4.8,0.,4.8
1979-07-27 06:02:18.380 ,0,1,0.,4.8,2.,4.8,0.,4.8,0.,4.8
1979-07-27 06:02:23.180 ,4,1,0.,4.8,3.,4.8,0.,4.8,0.,4.8
1979-07-27 06:02:27.980 ,4,1,0.,4.8,6.,4.8,2.,4.8,0.,4.8
1979-07-27 06:02:32.780 ,4,1,0.,4.8,2.,4.8,0.,4.8,0.,4.8
1979-07-27 06:02:37.580 ,4,1,0.,4.8,3.,4.8,1.,4.8,0.,4.8
1979-07-27 06:02:42.380 ,4,1,0.,4.8,3.,4.8,0.,4.8,0.,4.8
1979-07-27 06:02:47.180 ,7,1,0.,4.8,0.,4.8,1.,4.8,0.,4.8
1979-07-27 06:02:51.980 ,7,1,0.,4.8,5.,4.8,1.,4.8,1.,4.8
1979-07-27 06:02:56.780 ,7,1,0.,4.8,4.,4.8,0.,4.8,0.,4.8
1979-07-27 06:03:01.580 ,7,1,0.,4.8,0.,4.8,0.,4.8,0.,4.8
1979-07-27 06:03:06.380 ,7,1,0.,4.8,0.,4.8,0.,4.8,0.,4.8
1979-07-27 06:03:11.180 ,3,1,0.,4.8,0.,4.8,0.,4.8,0.,4.8
1979-07-27 06:03:15.980 ,3,1,0.,4.8,5.,4.8,0.,4.8,0.,4.8
1979-07-27 06:03:20.780 ,3,1,0.,4.8,2.,4.8,1.,4.8,0.,4.8
1979-07-27 06:03:25.580 ,3,1,0.,4.8,4.,4.8,0.,4.8,0.,4.8
1979-07-27 06:03:30.380 ,3,1,0.,4.8,2.,4.8,0.,4.8,1.,4.8
1979-07-27 06:03:35.180 ,0,1,0.,4.8,2.,4.8,0.,4.8,1.,4.8
1979-07-27 06:03:39.980 ,0,1,0.,4.8,4.,4.8,0.,4.8,1.,4.8
1979-07-27 06:03:44.780 ,0,1,0.,4.8,2.,4.8,0.,4.8,0.,4.8
1979-07-27 06:03:49.580 ,0,1,0.,4.8,2.,4.8,0.,4.8,0.,4.8
1979-07-27 06:03:54.380 ,0,1,0.,4.8,4.,4.8,0.,4.8,0.,4.8
1979-07-27 06:03:59.180 ,4,1,0.,4.8,0.,4.8,1.,4.8,0.,4.8
1979-07-27 06:04:03.980 ,4,1,0.,4.8,0.,4.8,0.,4.8,0.,4.8
1979-07-27 06:04:08.780 ,4,1,0.,4.8,4.,4.8,0.,4.8,0.,4.8
1979-07-27 06:04:13.580 ,4,1,0.,4.8,4.,4.8,0.,4.8,1.,4.8
1979-07-27 06:04:18.380 ,4,1,0.,4.8,4.,4.8,0.,4.8,0.,4.8
1979-07-27 06:04:23.180 ,7,1,0.,4.8,4.,4.8,0.,4.8,0.,4.8
1979-07-27 06:04:27.980 ,7,1,0.,4.8,2.,4.8,0.,4.8,0.,4.8
1979-07-27 06:04:32.780 ,7,1,0.,4.8,3.,4.8,1.,4.8,0.,4.8
1979-07-27 06:04:37.580 ,7,1,0.,4.8,0.,4.8,0.,4.8,0.,4.8
1979-07-27 06:04:42.380 ,7,1,0.,4.8,0.,4.8,0.,4.8,0.,4.8
1979-07-27 06:04:47.180 ,3,1,0.,4.8,0.,4.8,0.,4.8,0.,4.8
1979-07-27 06:04:51.980 ,3,1,0.,4.8,2.,4.8,1.,4.8,0.,4.8
1979-07-27 06:04:56.780 ,3,1,0.,4.8,1.,4.8,0.,4.8,0.,4.8
1979-07-27 06:05:01.580 ,3,1,0.,4.8,2.,4.8,0.,4.8,0.,4.8
1979-07-27 06:05:06.380 ,3,1,0.,4.8,5.,4.8,2.,4.8,1.,4.8
1979-07-27 06:05:11.180 ,0,1,0.,4.8,3.,4.8,1.,4.8,2.,4.8
1979-07-27 06:05:15.980 ,0,1,0.,4.8,3.,4.8,0.,4.8,0.,4.8
1979-07-27 06:05:20.780 ,0,1,0.,4.8,3.,4.8,1.,4.8,0.,4.8
1979-07-27 06:05:25.580 ,0,1,0.,4.8,2.,4.8,0.,4.8,0.,4.8
1979-07-27 06:05:30.380 ,0,1,0.,4.8,2.,4.8,1.,4.8,0.,4.8
1979-07-27 06:05:35.180 ,0,0,0.,4.8,2.,4.8,0.,4.8,2.,4.8
1979-07-27 06:05:39.980 ,0,0,0.,4.8,5.,4.8,3.,4.8,0.,4.8
1979-07-27 06:05:44.780 ,0,0,0.,4.8,0.,4.8,0.,4.8,0.,4.8
1979-07-27 06:05:49.580 ,0,0,0.,4.8,1.,4.8,0.,4.8,0.,4.8
1979-07-27 06:05:54.380 ,0,0,0.,4.8,1.,4.8,0.,4.8,1.,4.8
1979-07-27 06:05:59.180 ,0,0,0.,4.8,0.,4.8,0.,4.8,0.,4.8
1979-07-27 06:06:03.980 ,0,0,0.,4.8,1.,4.8,2.,4.8,1.,4.8
1979-07-27 06:06:08.780 ,0,0,0.,4.8,2.,4.8,0.,4.8,0.,4.8
1979-07-27 06:06:13.580 ,0,0,0.,4.8,3.,4.8,1.,4.8,0.,4.8
1979-07-27 06:06:18.380 ,0,0,0.,4.8,1.,4.8,0.,4.8,0.,4.8
1979-07-27 06:06:23.180 ,5,0,0.,4.8,0.,4.8,0.,4.8,0.,4.8
1979-07-27 06:06:27.980 ,5,0,0.,4.8,2.,4.8,1.,4.8,0.,4.8
1979-07-27 06:06:32.780 ,5,0,0.,4.8,1.,4.8,0.,4.8,0.,4.8
1979-07-27 06:06:37.580 ,5,0,0.,4.8,3.,4.8,0.,4.8,0.,4.8
1979-07-27 06:06:42.380 ,5,0,0.,4.8,1.,4.8,0.,4.8,0.,4.8
1979-07-27 06:06:47.180 ,5,0,0.,4.8,1.,4.8,0.,4.8,0.,4.8
1979-07-27 06:06:51.980 ,5,0,0.,4.8,3.,4.8,0.,4.8,0.,4.8
1979-07-27 06:06:56.780 ,5,0,0.,4.8,4.,4.8,0.,4.8,0.,4.8
1979-07-27 06:07:01.580 ,5,0,0.,4.8,1.,4.8,1.,4.8,0.,4.8
1979-07-27 06:07:06.380 ,5,0,0.,4.8,1.,4.8,0.,4.8,0.,4.8
1979-07-27 06:07:11.180 ,4,0,0.,4.8,3.,4.8,0.,4.8,0.,4.8
1979-07-27 06:07:15.980 ,4,0,0.,4.8,4.,4.8,0.,4.8,0.,4.8
1979-07-27 06:07:20.780 ,4,0,0.,4.8,3.,4.8,0.,4.8,0.,4.8
1979-07-27 06:07:25.580 ,4,0,0.,4.8,2.,4.8,1.,4.8,0.,4.8
1979-07-27 06:07:30.380 ,4,0,0.,4.8,2.,4.8,1.,4.8,0.,4.8
1979-07-27 06:07:35.180 ,4,0,0.,4.8,4.,4.8,1.,4.8,0.,4.8
1979-07-27 06:07:39.980 ,4,0,0.,4.8,2.,4.8,0.,4.8,1.,4.8
1979-07-27 06:07:44.780 ,4,0,0.,4.8,1.,4.8,1.,4.8,0.,4.8
1979-07-27 06:07:49.580 ,4,0,0.,4.8,4.,4.8,0.,4.8,0.,4.8
1979-07-27 06:07:54.380 ,4,0,0.,4.8,2.,4.8,1.,4.8,0.,4.8
1979-07-27 06:07:59.180 ,3,0,0.,4.8,2.,4.8,2.,4.8,0.,4.8
1979-07-27 06:08:03.980 ,3,0,0.,4.8,4.,4.8,0.,4.8,0.,4.8
1979-07-27 06:08:08.780 ,3,0,0.,4.8,6.,4.8,1.,4.8,0.,4.8
1979-07-27 06:08:13.580 ,3,0,0.,4.8,2.,4.8,0.,4.8,0.,4.8
1979-07-27 06:08:18.380 ,3,0,0.,4.8,1.,4.8,0.,4.8,2.,4.8
1979-07-27 06:08:23.180 ,3,0,0.,4.8,2.,4.8,0.,4.8,0.,4.8
1979-07-27 06:08:27.980 ,3,0,0.,4.8,3.,4.8,0.,4.8,0.,4.8
1979-07-27 06:08:32.780 ,3,0,0.,4.8,3.,4.8,0.,4.8,0.,4.8
1979-07-27 06:08:37.580 ,3,0,0.,4.8,4.,4.8,1.,4.8,0.,4.8
1979-07-27 06:08:42.380 ,3,0,0.,4.8,1.,4.8,0.,4.8,0.,4.8
1979-07-27 06:08:47.180 ,2,0,0.,4.8,3.,4.8,0.,4.8,0.,4.8
1979-07-27 06:08:51.980 ,2,0,0.,4.8,7.,4.8,0.,4.8,0.,4.8
1979-07-27 06:08:56.780 ,2,0,0.,4.8,0.,4.8,0.,4.8,0.,4.8
1979-07-27 06:09:01.580 ,2,0,0.,4.8,2.,4.8,0.,4.8,0.,4.8
1979-07-27 06:09:06.380 ,2,0,0.,4.8,4.,4.8,0.,4.8,0.,4.8
1979-07-27 06:09:11.180 ,2,0,0.,4.8,2.,4.8,0.,4.8,0.,4.8
1979-07-27 06:09:15.980 ,2,0,0.,4.8,1.,4.8,0.,4.8,0.,4.8
1979-07-27 06:09:20.780 ,2,0,0.,4.8,3.,4.8,1.,4.8,0.,4.8
1979-07-27 06:09:25.580 ,2,0,0.,4.8,7.,4.8,0.,4.8,0.,4.8
1979-07-27 06:09:30.380 ,2,0,0.,4.8,1.,4.8,0.,4.8,0.,4.8
1979-07-27 06:09:35.180 ,1,0,0.,4.8,2.,4.8,0.,4.8,0.,4.8
1979-07-27 06:09:39.980 ,1,0,0.,4.8,3.,4.8,0.,4.8,0.,4.8
1979-07-27 06:09:44.780 ,1,0,0.,4.8,4.,4.8,0.,4.8,0.,4.8
1979-07-27 06:09:49.580 ,1,0,0.,4.8,3.,4.8,0.,4.8,0.,4.8
1979-07-27 06:09:54.380 ,1,0,0.,4.8,4.,4.8,1.,4.8,1.,4.8
1979-07-27 06:09:59.180 ,1,0,0.,4.8,3.,4.8,0.,4.8,1.,4.8
1979-07-27 06:10:03.980 ,1,0,0.,4.8,4.,4.8,2.,4.8,0.,4.8
1979-07-27 06:10:08.780 ,1,0,0.,4.8,2.,4.8,0.,4.8,0.,4.8
1979-07-27 06:10:13.580 ,1,0,0.,4.8,3.,4.8,0.,4.8,0.,4.8
1979-07-27 06:10:18.380 ,1,0,0.,4.8,5.,4.8,0.,4.8,2.,4.8
1979-07-27 06:10:23.180 ,0,0,0.,4.8,6.,4.8,0.,4.8,0.,4.8
1979-07-27 06:10:27.980 ,0,0,0.,4.8,3.,4.8,0.,4.8,0.,4.8
1979-07-27 06:10:32.780 ,0,0,0.,4.8,2.,4.8,0.,4.8,0.,4.8
1979-07-27 06:10:37.580 ,0,0,0.,4.8,2.,4.8,0.,4.8,0.,4.8
1979-07-27 06:10:42.380 ,0,0,0.,4.8,4.,4.8,1.,4.8,0.,4.8
1979-07-27 06:10:47.180 ,0,0,0.,4.8,6.,4.8,0.,4.8,1.,4.8
1979-07-27 06:10:51.980 ,0,0,0.,4.8,4.,4.8,1.,4.8,0.,4.8
1979-07-27 06:10:56.780 ,0,0,0.,4.8,1.,4.8,4.,4.8,0.,4.8
1979-07-27 06:11:01.580 ,0,0,0.,4.8,0.,4.8,0.,4.8,0.,4.8
1979-07-27 06:11:06.380 ,0,0,0.,4.8,4.,4.8,0.,4.8,1.,4.8
1979-07-27 06:11:11.180 ,0,0,0.,4.8,8.,4.8,0.,4.8,0.,4.8
1979-07-27 06:11:15.980 ,0,0,0.,4.8,5.,4.8,0.,4.8,0.,4.8
1979-07-27 06:11:20.780 ,0,0,0.,4.8,1.,4.8,0.,4.8,0.,4.8
1979-07-27 06:11:25.580 ,0,0,0.,4.8,3.,4.8,0.,4.8,0.,4.8
1979-07-27 06:11:30.380 ,0,0,0.,4.8,4.,4.8,1.,4.8,1.,4.8
1979-07-27 06:11:35.180 ,0,0,0.,4.8,2.,4.8,0.,4.8,1.,4.8
1979-07-27 06:11:39.980 ,0,0,0.,4.8,1.,4.8,1.,4.8,0.,4.8
1979-07-27 06:11:44.780 ,0,0,0.,4.8,5.,4.8,0.,4.8,0.,4.8
1979-07-27 06:11:49.580 ,0,0,0.,4.8,7.,4.8,0.,4.8,0.,4.8
1979-07-27 06:11:54.380 ,0,0,0.,4.8,5.,4.8,1.,4.8,0.,4.8
1979-07-27 06:11:59.180 ,1,0,0.,4.8,4.,4.8,0.,4.8,0.,4.8
1979-07-27 06:12:03.980 ,1,0,0.,4.8,4.,4.8,0.,4.8,0.,4.8
1979-07-27 06:12:08.780 ,1,0,0.,4.8,6.,4.8,0.,4.8,0.,4.8
1979-07-27 06:12:13.580 ,1,0,0.,4.8,3.,4.8,1.,4.8,2.,4.8
1979-07-27 06:12:18.380 ,1,0,0.,4.8,7.,4.8,0.,4.8,1.,4.8
1979-07-27 06:12:23.180 ,1,0,0.,4.8,6.,4.8,1.,4.8,1.,4.8
1979-07-27 06:12:27.980 ,1,0,0.,4.8,5.,4.8,0.,4.8,0.,4.8
1979-07-27 06:12:32.780 ,1,0,0.,4.8,2.,4.8,0.,4.8,0.,4.8
1979-07-27 06:12:37.580 ,1,0,0.,4.8,5.,4.8,0.,4.8,0.,4.8
1979-07-27 06:12:42.380 ,1,0,0.,4.8,5.,4.8,0.,4.8,0.,4.8
1979-07-27 06:12:47.180 ,2,0,0.,4.8,4.,4.8,1.,4.8,0.,4.8
1979-07-27 06:12:51.980 ,2,0,0.,4.8,7.,4.8,0.,4.8,1.,4.8
1979-07-27 06:12:56.780 ,2,0,0.,4.8,1.,4.8,2.,4.8,0.,4.8
1979-07-27 06:13:01.580 ,2,0,0.,4.8,2.,4.8,0.,4.8,0.,4.8
1979-07-27 06:13:06.380 ,2,0,0.,4.8,4.,4.8,0.,4.8,1.,4.8
1979-07-27 06:13:11.180 ,2,0,0.,4.8,5.,4.8,2.,4.8,0.,4.8
1979-07-27 06:13:15.980 ,2,0,0.,4.8,2.,4.8,0.,4.8,0.,4.8
1979-07-27 06:13:20.780 ,2,0,0.,4.8,4.,4.8,0.,4.8,0.,4.8
1979-07-27 06:13:25.580 ,2,0,0.,4.8,3.,4.8,0.,4.8,0.,4.8
1979-07-27 06:13:30.380 ,2,0,0.,4.8,3.,4.8,0.,4.8,0.,4.8
1979-07-27 06:13:35.180 ,3,0,0.,4.8,2.,4.8,0.,4.8,1.,4.8
1979-07-27 06:13:39.980 ,3,0,0.,4.8,4.,4.8,1.,4.8,0.,4.8
1979-07-27 06:13:44.780 ,3,0,0.,4.8,2.,4.8,0.,4.8,0.,4.8
1979-07-27 06:13:49.580 ,3,0,0.,4.8,3.,4.8,0.,4.8,0.,4.8
1979-07-27 06:13:54.380 ,3,0,0.,4.8,2.,4.8,1.,4.8,2.,4.8
1979-07-27 06:13:59.180 ,3,0,0.,4.8,7.,4.8,0.,4.8,0.,4.8
1979-07-27 06:14:03.980 ,3,0,0.,4.8,3.,4.8,0.,4.8,0.,4.8
1979-07-27 06:14:08.780 ,3,0,0.,4.8,3.,4.8,0.,4.8,1.,4.8
1979-07-27 06:14:13.580 ,3,0,0.,4.8,0.,4.8,1.,4.8,0.,4.8
1979-07-27 06:14:18.380 ,3,0,0.,4.8,4.,4.8,0.,4.8,1.,4.8
1979-07-27 06:14:23.180 ,4,0,0.,4.8,0.,4.8,1.,4.8,1.,4.8
1979-07-27 06:14:27.980 ,4,0,0.,4.8,1.,4.8,0.,4.8,0.,4.8
1979-07-27 06:14:32.780 ,4,0,0.,4.8,1.,4.8,0.,4.8,0.,4.8
1979-07-27 06:14:37.580 ,4,0,0.,4.8,3.,4.8,1.,4.8,0.,4.8
1979-07-27 06:14:42.380 ,4,0,0.,4.8,2.,4.8,1.,4.8,0.,4.8
1979-07-27 06:14:47.180 ,4,0,0.,4.8,3.,4.8,1.,4.8,0.,4.8
1979-07-27 06:14:51.980 ,4,0,0.,4.8,1.,4.8,0.,4.8,0.,4.8
1979-07-27 06:14:56.780 ,4,0,0.,4.8,4.,4.8,0.,4.8,0.,4.8
1979-07-27 06:15:01.580 ,4,0,0.,4.8,3.,4.8,0.,4.8,0.,4.8
1979-07-27 06:15:06.380 ,4,0,0.,4.8,1.,4.8,1.,4.8,0.,4.8
1979-07-27 06:15:11.180 ,5,0,0.,4.8,2.,4.8,0.,4.8,0.,4.8
1979-07-27 06:15:15.980 ,5,0,0.,4.8,4.,4.8,0.,4.8,0.,4.8
1979-07-27 06:15:20.780 ,5,0,0.,4.8,4.,4.8,1.,4.8,0.,4.8
1979-07-27 06:15:25.580 ,5,0,0.,4.8,0.,4.8,0.,4.8,0.,4.8
1979-07-27 06:15:30.380 ,5,0,0.,4.8,2.,4.8,0.,4.8,0.,4.8
1979-07-27 06:15:35.180 ,5,0,0.,4.8,7.,4.8,0.,4.8,0.,4.8
1979-07-27 06:15:39.980 ,5,0,0.,4.8,4.,4.8,0.,4.8,0.,4.8
1979-07-27 06:15:44.780 ,5,0,0.,4.8,6.,4.8,0.,4.8,0.,4.8
1979-07-27 06:15:49.580 ,5,0,0.,4.8,2.,4.8,1.,4.8,0.,4.8
1979-07-27 06:15:54.380 ,5,0,0.,4.8,1.,4.8,0.,4.8,0.,4.8
1979-07-27 06:15:59.180 ,6,0,0.,4.8,1.,4.8,0.,4.8,1.,4.8
1979-07-27 06:16:03.980 ,6,0,0.,4.8,2.,4.8,1.,4.8,0.,4.8
1979-07-27 06:16:08.780 ,6,0,0.,4.8,6.,4.8,0.,4.8,0.,4.8
1979-07-27 06:16:13.580 ,6,0,0.,4.8,2.,4.8,0.,4.8,2.,4.8
1979-07-27 06:16:18.380 ,6,0,0.,4.8,4.,4.8,1.,4.8,0.,4.8
1979-07-27 06:16:23.180 ,6,0,0.,4.8,4.,4.8,0.,4.8,0.,4.8
1979-07-27 06:16:27.980 ,6,0,0.,4.8,3.,4.8,1.,4.8,0.,4.8
1979-07-27 06:16:32.780 ,6,0,0.,4.8,1.,4.8,0.,4.8,0.,4.8
1979-07-27 06:16:37.580 ,6,0,0.,4.8,2.,4.8,0.,4.8,0.,4.8
1979-07-27 06:16:42.380 ,6,0,0.,4.8,0.,4.8,3.,4.8,0.,4.8
1979-07-27 06:16:47.180 ,7,0,0.,4.8,6.,4.8,0.,4.8,0.,4.8
1979-07-27 06:16:51.980 ,7,0,0.,4.8,5.,4.8,0.,4.8,1.,4.8
1979-07-27 06:16:56.780 ,7,0,0.,4.8,0.,4.8,0.,4.8,0.,4.8
1979-07-27 06:17:01.580 ,7,0,0.,4.8,0.,4.8,0.,4.8,1.,4.8
1979-07-27 06:17:06.380 ,7,0,0.,4.8,0.,4.8,0.,4.8,0.,4.8
1979-07-27 06:17:11.180 ,7,0,0.,4.8,1.,4.8,0.,4.8,0.,4.8
1979-07-27 06:17:15.980 ,7,0,0.,4.8,0.,4.8,0.,4.8,0.,4.8
1979-07-27 06:17:20.780 ,7,0,0.,4.8,0.,4.8,0.,4.8,0.,4.8
1979-07-27 06:17:25.580 ,7,0,0.,4.8,0.,4.8,0.,4.8,0.,4.8
1979-07-27 06:17:30.380 ,7,0,0.,4.8,0.,4.8,0.,4.8,0.,4.8
1979-07-27 06:17:35.180 ,7,0,0.,4.8,0.,4.8,0.,4.8,0.,4.8
1979-07-27 06:17:39.980 ,7,0,0.,4.8,2.,4.8,0.,4.8,0.,4.8
1979-07-27 06:17:44.780 ,7,0,0.,4.8,0.,4.8,0.,4.8,0.,4.8
1979-07-27 06:17:49.580 ,7,0,0.,4.8,0.,4.8,0.,4.8,0.,4.8
1979-07-27 06:17:54.380 ,7,0,0.,4.8,2.,4.8,0.,4.8,0.,4.8
1979-07-27 06:17:59.180 ,7,0,0.,4.8,1.,4.8,0.,4.8,0.,4.8
1979-07-27 06:18:03.980 ,7,0,0.,4.8,1.,4.8,0.,4.8,0.,4.8
1979-07-27 06:18:08.780 ,7,0,0.,4.8,1.,4.8,0.,4.8,0.,4.8
1979-07-27 06:18:13.580 ,7,0,0.,4.8,0.,4.8,0.,4.8,0.,4.8
1979-07-27 06:18:18.380 ,7,0,0.,4.8,1.,4.8,0.,4.8,1.,4.8
1979-07-27 06:18:23.180 ,6,0,0.,4.8,1.,4.8,0.,4.8,0.,4.8
1979-07-27 06:18:27.980 ,6,0,0.,4.8,0.,4.8,0.,4.8,0.,4.8
1979-07-27 06:18:32.780 ,6,0,0.,4.8,3.,4.8,2.,4.8,0.,4.8
1979-07-27 06:18:37.580 ,6,0,0.,4.8,2.,4.8,0.,4.8,0.,4.8
1979-07-27 06:18:42.380 ,6,0,0.,4.8,4.,4.8,0.,4.8,0.,4.8
1979-07-27 06:18:47.180 ,6,0,0.,4.8,3.,4.8,0.,4.8,0.,4.8
1979-07-27 06:18:51.980 ,6,0,0.,4.8,6.,4.8,1.,4.8,0.,4.8
1979-07-27 06:18:56.780 ,6,0,0.,4.8,3.,4.8,0.,4.8,0.,4.8
1979-07-27 06:19:01.580 ,6,0,0.,4.8,8.,4.8,2.,4.8,0.,4.8
1979-07-27 06:19:06.380 ,6,0,0.,4.8,6.,4.8,0.,4.8,2.,4.8
1979-07-27 06:19:11.180 ,5,0,0.,4.8,6.,4.8,1.,4.8,0.,4.8
1979-07-27 06:19:15.980 ,5,0,0.,4.8,4.,4.8,0.,4.8,0.,4.8
1979-07-27 06:19:20.780 ,5,0,0.,4.8,3.,4.8,0.,4.8,0.,4.8
1979-07-27 06:19:25.580 ,5,0,0.,4.8,3.,4.8,0.,4.8,0.,4.8
1979-07-27 06:19:30.380 ,5,0,0.,4.8,0.,4.8,0.,4.8,1.,4.8
1979-07-27 06:19:35.180 ,5,0,0.,4.8,3.,4.8,0.,4.8,0.,4.8
1979-07-27 06:19:39.980 ,5,0,0.,4.8,3.,4.8,0.,4.8,0.,4.8
1979-07-27 06:19:44.780 ,5,0,0.,4.8,3.,4.8,0.,4.8,0.,4.8
1979-07-27 06:19:49.580 ,5,0,0.,4.8,5.,4.8,0.,4.8,0.,4.8
1979-07-27 06:19:54.380 ,5,0,0.,4.8,5.,4.8,1.,4.8,0.,4.8
1979-07-27 06:19:59.180 ,4,0,0.,4.8,0.,4.8,1.,4.8,0.,4.8
1979-07-27 06:20:03.980 ,4,0,0.,4.8,3.,4.8,0.,4.8,0.,4.8
1979-07-27 06:20:08.780 ,4,0,0.,4.8,2.,4.8,1.,4.8,1.,4.8
1979-07-27 06:20:13.580 ,4,0,0.,4.8,1.,4.8,0.,4.8,0.,4.8
1979-07-27 06:20:18.380 ,4,0,0.,4.8,3.,4.8,0.,4.8,0.,4.8
1979-07-27 06:20:23.180 ,4,0,0.,4.8,6.,4.8,1.,4.8,0.,4.8
1979-07-27 06:20:27.980 ,4,0,0.,4.8,8.,4.8,0.,4.8,0.,4.8
1979-07-27 06:20:32.780 ,4,0,0.,4.8,4.,4.8,0.,4.8,0.,4.8
1979-07-27 06:20:37.580 ,4,0,0.,4.8,0.,4.8,0.,4.8,0.,4.8
1979-07-27 06:20:42.380 ,4,0,0.,4.8,5.,4.8,0.,4.8,1.,4.8
1979-07-27 06:20:47.180 ,3,0,0.,4.8,5.,4.8,0.,4.8,0.,4.8
1979-07-27 06:20:51.980 ,3,0,0.,4.8,4.,4.8,2.,4.8,0.,4.8
1979-07-27 06:20:56.780 ,3,0,0.,4.8,5.,4.8,1.,4.8,1.,4.8
1979-07-27 06:21:01.580 ,3,0,0.,4.8,4.,4.8,0.,4.8,0.,4.8
1979-07-27 06:21:06.380 ,3,0,0.,4.8,2.,4.8,0.,4.8,0.,4.8
1979-07-27 06:21:11.180 ,3,0,0.,4.8,6.,4.8,1.,4.8,0.,4.8
1979-07-27 06:21:15.980 ,3,0,0.,4.8,3.,4.8,1.,4.8,0.,4.8
1979-07-27 06:21:20.780 ,3,0,0.,4.8,4.,4.8,0.,4.8,0.,4.8
1979-07-27 06:21:25.580 ,3,0,0.,4.8,3.,4.8,0.,4.8,0.,4.8
1979-07-27 06:21:30.380 ,3,0,0.,4.8,1.,4.8,2.,4.8,1.,4.8
1979-07-27 06:21:35.180 ,2,0,0.,4.8,6.,4.8,0.,4.8,2.,4.8
1979-07-27 06:21:39.980 ,2,0,0.,4.8,2.,4.8,0.,4.8,0.,4.8
1979-07-27 06:21:44.780 ,2,0,0.,4.8,4.,4.8,0.,4.8,0.,4.8
1979-07-27 06:21:49.580 ,2,0,0.,4.8,7.,4.8,0.,4.8,1.,4.8
1979-07-27 06:21:54.380 ,2,0,0.,4.8,2.,4.8,0.,4.8,0.,4.8
1979-07-27 06:21:59.180 ,2,0,0.,4.8,0.,4.8,0.,4.8,1.,4.8
1979-07-27 06:22:03.980 ,2,0,0.,4.8,3.,4.8,1.,4.8,0.,4.8
1979-07-27 06:22:08.780 ,2,0,0.,4.8,1.,4.8,0.,4.8,0.,4.8
1979-07-27 06:22:13.580 ,2,0,0.,4.8,2.,4.8,0.,4.8,0.,4.8
1979-07-27 06:22:18.380 ,2,0,0.,4.8,5.,4.8,0.,4.8,0.,4.8
1979-07-27 06:22:23.180 ,1,0,0.,4.8,3.,4.8,0.,4.8,0.,4.8
1979-07-27 06:22:27.980 ,1,0,0.,4.8,7.,4.8,0.,4.8,0.,4.8
1979-07-27 06:22:32.780 ,1,0,0.,4.8,15.,4.8,1.,4.8,0.,4.8
1979-07-27 06:22:37.580 ,1,0,0.,4.8,13.,4.8,0.,4.8,1.,4.8
1979-07-27 06:22:42.380 ,1,0,0.,4.8,10.,4.8,1.,4.8,0.,4.8
1979-07-27 06:22:47.180 ,1,0,0.,4.8,19.,4.8,0.,4.8,0.,4.8
1979-07-27 06:22:51.980 ,1,0,0.,4.8,16.,4.8,1.,4.8,0.,4.8
1979-07-27 06:22:56.780 ,1,0,0.,4.8,11.,4.8,2.,4.8,1.,4.8
1979-07-27 06:23:01.580 ,1,0,0.,4.8,9.,4.8,3.,4.8,0.,4.8
1979-07-27 06:23:06.380 ,1,0,0.,4.8,13.,4.8,1.,4.8,0.,4.8
1979-07-27 06:23:11.180 ,0,0,0.,4.8,16.,4.8,2.,4.8,0.,4.8
1979-07-27 06:23:15.980 ,0,0,0.,4.8,12.,4.8,0.,4.8,0.,4.8
1979-07-27 06:23:20.780 ,0,0,0.,4.8,11.,4.8,1.,4.8,0.,4.8
1979-07-27 06:23:25.580 ,0,0,0.,4.8,9.,4.8,0.,4.8,1.,4.8
1979-07-27 06:23:30.380 ,0,0,0.,4.8,19.,4.8,0.,4.8,0.,4.8
1979-07-27 06:23:35.180 ,0,0,0.,4.8,7.,4.8,2.,4.8,0.,4.8
1979-07-27 06:23:39.980 ,0,0,0.,4.8,15.,4.8,2.,4.8,0.,4.8
1979-07-27 06:23:44.780 ,0,0,0.,4.8,11.,4.8,2.,4.8,0.,4.8
1979-07-27 06:23:49.580 ,0,0,0.,4.8,9.,4.8,1.,4.8,0.,4.8
1979-07-27 06:23:54.380 ,0,0,0.,4.8,8.,4.8,0.,4.8,0.,4.8
1979-07-27 06:23:59.180 ,0,0,0.,4.8,11.,4.8,0.,4.8,0.,4.8
1979-07-27 06:24:03.980 ,0,0,0.,4.8,9.,4.8,0.,4.8,0.,4.8
1979-07-27 06:24:08.780 ,0,0,0.,4.8,14.,4.8,1.,4.8,0.,4.8
1979-07-27 06:24:13.580 ,0,0,0.,4.8,8.,4.8,0.,4.8,0.,4.8
1979-07-27 06:24:18.380 ,0,0,0.,4.8,11.,4.8,2.,4.8,0.,4.8
1979-07-27 06:24:23.180 ,0,0,0.,4.8,11.,4.8,0.,4.8,0.,4.8
1979-07-27 06:24:27.980 ,0,0,0.,4.8,9.,4.8,3.,4.8,0.,4.8
1979-07-27 06:24:32.780 ,0,0,0.,4.8,8.,4.8,2.,4.8,1.,4.8
1979-07-27 06:24:37.580 ,0,0,0.,4.8,15.,4.8,4.,4.8,1.,4.8
1979-07-27 06:24:42.380 ,0,0,0.,4.8,6.,4.8,1.,4.8,1.,4.8
1979-07-27 06:24:47.180 ,1,0,0.,4.8,8.,4.8,2.,4.8,0.,4.8
1979-07-27 06:24:51.980 ,1,0,0.,4.8,15.,4.8,3.,4.8,0.,4.8
1979-07-27 06:24:56.780 ,1,0,0.,4.8,13.,4.8,1.,4.8,0.,4.8
1979-07-27 06:25:01.580 ,1,0,0.,4.8,11.,4.8,1.,4.8,0.,4.8
1979-07-27 06:25:06.380 ,1,0,0.,4.8,16.,4.8,1.,4.8,0.,4.8
1979-07-27 06:25:11.180 ,1,0,0.,4.8,11.,4.8,2.,4.8,0.,4.8
1979-07-27 06:25:15.980 ,1,0,0.,4.8,11.,4.8,0.,4.8,0.,4.8
1979-07-27 06:25:20.780 ,1,0,0.,4.8,8.,4.8,0.,4.8,0.,4.8
1979-07-27 06:25:25.580 ,1,0,0.,4.8,19.,4.8,1.,4.8,0.,4.8
1979-07-27 06:25:30.380 ,1,0,0.,4.8,17.,4.8,1.,4.8,0.,4.8
1979-07-27 06:25:35.180 ,2,0,0.,4.8,9.,4.8,0.,4.8,0.,4.8
1979-07-27 06:25:39.980 ,2,0,0.,4.8,5.,4.8,1.,4.8,0.,4.8
1979-07-27 06:25:44.780 ,2,0,0.,4.8,5.,4.8,0.,4.8,0.,4.8
1979-07-27 06:25:49.580 ,2,0,0.,4.8,1.,4.8,1.,4.8,0.,4.8
1979-07-27 06:25:54.380 ,2,0,0.,4.8,3.,4.8,1.,4.8,1.,4.8
1979-07-27 06:25:59.180 ,2,0,0.,4.8,3.,4.8,0.,4.8,0.,4.8
1979-07-27 06:26:03.980 ,2,0,0.,4.8,3.,4.8,0.,4.8,1.,4.8
1979-07-27 06:26:08.780 ,2,0,0.,4.8,8.,4.8,1.,4.8,0.,4.8
1979-07-27 06:26:13.580 ,2,0,0.,4.8,5.,4.8,0.,4.8,0.,4.8
1979-07-27 06:26:18.380 ,2,0,0.,4.8,5.,4.8,1.,4.8,0.,4.8
1979-07-27 06:26:23.180 ,3,0,0.,4.8,3.,4.8,0.,4.8,0.,4.8
1979-07-27 06:26:27.980 ,3,0,0.,4.8,4.,4.8,0.,4.8,0.,4.8
1979-07-27 06:26:32.780 ,3,0,0.,4.8,3.,4.8,0.,4.8,1.,4.8
1979-07-27 06:26:37.580 ,3,0,0.,4.8,5.,4.8,1.,4.8,0.,4.8
1979-07-27 06:26:42.380 ,3,0,0.,4.8,2.,4.8,0.,4.8,1.,4.8
1979-07-27 06:26:47.180 ,3,0,0.,4.8,2.,4.8,0.,4.8,0.,4.8
1979-07-27 06:26:51.980 ,3,0,0.,4.8,2.,4.8,0.,4.8,1.,4.8
1979-07-27 06:26:56.780 ,3,0,0.,4.8,5.,4.8,0.,4.8,0.,4.8
1979-07-27 06:27:01.580 ,3,0,0.,4.8,2.,4.8,0.,4.8,0.,4.8
1979-07-27 06:27:06.380 ,3,0,0.,4.8,5.,4.8,0.,4.8,0.,4.8
1979-07-27 06:27:11.180 ,4,0,0.,4.8,7.,4.8,1.,4.8,0.,4.8
1979-07-27 06:27:15.980 ,4,0,0.,4.8,6.,4.8,0.,4.8,0.,4.8
1979-07-27 06:27:20.780 ,4,0,0.,4.8,5.,4.8,1.,4.8,0.,4.8
1979-07-27 06:27:25.580 ,4,0,0.,4.8,6.,4.8,0.,4.8,0.,4.8
1979-07-27 06:27:30.380 ,4,0,0.,4.8,3.,4.8,1.,4.8,2.,4.8
1979-07-27 06:27:35.180 ,4,0,0.,4.8,3.,4.8,0.,4.8,0.,4.8
1979-07-27 06:27:39.980 ,4,0,0.,4.8,5.,4.8,0.,4.8,0.,4.8
1979-07-27 06:27:44.780 ,4,0,0.,4.8,1.,4.8,0.,4.8,0.,4.8
1979-07-27 06:27:49.580 ,4,0,0.,4.8,2.,4.8,0.,4.8,0.,4.8
1979-07-27 06:27:54.380 ,4,0,0.,4.8,3.,4.8,1.,4.8,0.,4.8
1979-07-27 06:27:59.180 ,5,0,0.,4.8,3.,4.8,0.,4.8,0.,4.8
1979-07-27 06:28:03.980 ,5,0,0.,4.8,3.,4.8,2.,4.8,0.,4.8
1979-07-27 06:28:08.780 ,5,0,0.,4.8,2.,4.8,1.,4.8,0.,4.8
1979-07-27 06:28:13.580 ,5,0,0.,4.8,6.,4.8,0.,4.8,0.,4.8
1979-07-27 06:28:18.380 ,5,0,1.,4.8,4.,4.8,0.,4.8,0.,4.8
1979-07-27 06:28:23.180 ,5,0,0.,4.8,4.,4.8,0.,4.8,0.,4.8
1979-07-27 06:28:27.980 ,5,0,0.,4.8,2.,4.8,1.,4.8,0.,4.8
1979-07-27 06:28:32.780 ,5,0,0.,4.8,5.,4.8,0.,4.8,1.,4.8
1979-07-27 06:28:37.580 ,5,0,0.,4.8,3.,4.8,0.,4.8,0.,4.8
1979-07-27 06:28:42.380 ,5,0,0.,4.8,3.,4.8,0.,4.8,0.,4.8
1979-07-27 06:28:47.180 ,6,0,0.,4.8,3.,4.8,0.,4.8,1.,4.8
1979-07-27 06:28:51.980 ,6,0,0.,4.8,3.,4.8,0.,4.8,0.,4.8
1979-07-27 06:28:56.780 ,6,0,0.,4.8,2.,4.8,3.,4.8,0.,4.8
1979-07-27 06:29:01.580 ,6,0,0.,4.8,4.,4.8,1.,4.8,2.,4.8
1979-07-27 06:29:06.380 ,6,0,0.,4.8,0.,4.8,1.,4.8,0.,4.8
1979-07-27 06:29:11.180 ,6,0,0.,4.8,3.,4.8,0.,4.8,0.,4.8
1979-07-27 06:29:15.980 ,6,0,0.,4.8,3.,4.8,1.,4.8,1.,4.8
1979-07-27 06:29:20.780 ,6,0,0.,4.8,5.,4.8,2.,4.8,0.,4.8
1979-07-27 06:29:25.580 ,6,0,0.,4.8,4.,4.8,0.,4.8,0.,4.8
1979-07-27 06:29:30.380 ,6,0,0.,4.8,2.,4.8,0.,4.8,0.,4.8
1979-07-27 06:29:35.180 ,7,0,0.,4.8,2.,4.8,0.,4.8,0.,4.8
1979-07-27 06:29:39.980 ,7,0,0.,4.8,4.,4.8,1.,4.8,0.,4.8
1979-07-27 06:29:44.780 ,7,0,0.,4.8,0.,4.8,1.,4.8,0.,4.8
1979-07-27 06:29:49.580 ,7,0,0.,4.8,0.,4.8,0.,4.8,0.,4.8
1979-07-27 06:29:54.380 ,7,0,0.,4.8,1.,4.8,1.,4.8,0.,4.8
1979-07-27 06:29:59.180 ,7,0,0.,4.8,2.,4.8,0.,4.8,0.,4.8
1979-07-27 06:30:03.980 ,7,0,0.,4.8,3.,4.8,0.,4.8,0.,4.8
1979-07-27 06:30:08.780 ,7,0,0.,4.8,1.,4.8,0.,4.8,0.,4.8
1979-07-27 06:30:13.580 ,7,0,0.,4.8,2.,4.8,0.,4.8,0.,4.8
1979-07-27 06:30:18.380 ,7,0,0.,4.8,2.,4.8,0.,4.8,0.,4.8
1979-07-27 06:30:23.180 ,7,0,0.,4.8,1.,4.8,0.,4.8,0.,4.8
1979-07-27 06:30:27.980 ,7,0,0.,4.8,0.,4.8,0.,4.8,0.,4.8
1979-07-27 06:30:32.780 ,7,0,0.,4.8,1.,4.8,0.,4.8,0.,4.8
1979-07-27 06:30:37.580 ,7,0,0.,4.8,3.,4.8,1.,4.8,1.,4.8
1979-07-27 06:30:42.380 ,7,0,0.,4.8,0.,4.8,0.,4.8,0.,4.8
1979-07-27 06:30:47.180 ,7,0,0.,4.8,1.,4.8,0.,4.8,0.,4.8
1979-07-27 06:30:51.980 ,7,0,0.,4.8,0.,4.8,0.,4.8,1.,4.8
1979-07-27 06:30:56.780 ,7,0,0.,4.8,1.,4.8,0.,4.8,0.,4.8
1979-07-27 06:31:01.580 ,7,0,0.,4.8,0.,4.8,0.,4.8,1.,4.8
1979-07-27 06:31:06.380 ,7,0,0.,4.8,0.,4.8,0.,4.8,0.,4.8
1979-07-27 06:31:11.180 ,6,0,0.,4.8,0.,4.8,0.,4.8,0.,4.8
1979-07-27 06:31:15.980 ,6,0,0.,4.8,1.,4.8,0.,4.8,0.,4.8
1979-07-27 06:31:20.780 ,6,0,0.,4.8,4.,4.8,1.,4.8,0.,4.8
1979-07-27 06:31:25.580 ,6,0,0.,4.8,7.,4.8,0.,4.8,0.,4.8
1979-07-27 06:31:30.380 ,6,0,0.,4.8,3.,4.8,0.,4.8,0.,4.8
1979-07-27 06:31:35.180 ,6,0,0.,4.8,4.,4.8,0.,4.8,1.,4.8
1979-07-27 06:31:39.980 ,6,0,0.,4.8,5.,4.8,1.,4.8,1.,4.8
1979-07-27 06:31:44.780 ,6,0,0.,4.8,5.,4.8,1.,4.8,0.,4.8
1979-07-27 06:31:49.580 ,6,0,0.,4.8,8.,4.8,0.,4.8,0.,4.8
1979-07-27 06:31:54.380 ,6,0,0.,4.8,8.,4.8,1.,4.8,0.,4.8
1979-07-27 06:31:59.180 ,5,0,0.,4.8,5.,4.8,0.,4.8,1.,4.8
1979-07-27 06:32:03.980 ,5,0,0.,4.8,6.,4.8,1.,4.8,0.,4.8
1979-07-27 06:32:08.780 ,5,0,0.,4.8,6.,4.8,1.,4.8,0.,4.8
1979-07-27 06:32:13.580 ,5,0,0.,4.8,2.,4.8,0.,4.8,0.,4.8
1979-07-27 06:32:18.380 ,5,0,0.,4.8,2.,4.8,2.,4.8,0.,4.8
1979-07-27 06:32:23.180 ,5,0,0.,4.8,2.,4.8,0.,4.8,0.,4.8
1979-07-27 06:32:27.980 ,5,0,0.,4.8,1.,4.8,0.,4.8,0.,4.8
1979-07-27 06:32:32.780 ,5,0,0.,4.8,3.,4.8,0.,4.8,0.,4.8
1979-07-27 06:32:37.580 ,5,0,0.,4.8,4.,4.8,0.,4.8,0.,4.8
1979-07-27 06:32:42.380 ,5,0,0.,4.8,6.,4.8,0.,4.8,0.,4.8
1979-07-27 06:32:47.180 ,4,0,0.,4.8,2.,4.8,2.,4.8,0.,4.8
1979-07-27 06:32:51.980 ,4,0,0.,4.8,2.,4.8,1.,4.8,0.,4.8
1979-07-27 06:32:56.780 ,4,0,0.,4.8,3.,4.8,1.,4.8,0.,4.8
1979-07-27 06:33:01.580 ,4,0,0.,4.8,3.,4.8,0.,4.8,1.,4.8
1979-07-27 06:33:06.380 ,4,0,0.,4.8,7.,4.8,0.,4.8,0.,4.8
1979-07-27 06:33:11.180 ,4,0,0.,4.8,3.,4.8,0.,4.8,0.,4.8
1979-07-27 06:33:15.980 ,4,0,0.,4.8,4.,4.8,1.,4.8,1.,4.8